Simultaneous Nadir Overpasses (SNOs) Predictions

Prediction of SNOs between GOES-16 and TERRA Satellite Orbit:

Table of predicted SNOs for the next 14.0 days since TLE Epoch: 4/4/2025
Index Date Time (GOES-16) GOES-16 Lat,Lon TERRA Lat,Lon Distance(km) Time Diff (sec)
1 04/06/2025 14:28:39 0.06, -75.49 -0.02, -74.99 56.93 80
2 04/07/2025 02:48:20 -0.06, -75.48 -0.93, -79.78 488.62 80
3 04/09/2025 02:26:43 -0.06, -75.49 0.01, -75.22 30.92 80
4 04/11/2025 14:29:56 0.06, -75.52 0.04, -75.39 14.69 80
5 04/14/2025 02:30:38 -0.05, -75.54 -0.08, -75.61 8.32 80
6 04/16/2025 14:28:30 0.05, -75.59 0.07, -75.79 23.06 80
7 04/18/2025 14:12:11 0.04, -75.61 -0.90, -71.22 499.79 80
